FW9412 Weather Reports


Display with metric or nautical units.
time (UTC)temp
F
wind
direction
speed
MPH
gust
MPH
rain 1hr
in
rain 24hr
in
rain mn
in
humidity
%
barometer
mb
20260903180640 78 180 0.0 1.0 0.00 0.00 0.00 70 1013.7
20260903180134 78 184 0.0 1.0 0.00 0.00 0.00 68 1013.8
20260903175633 78 176 0.0 0.0 0.00 0.00 0.00 72 1013.7
20260903175133 78 193 1.0 1.0 0.00 0.00 0.00 70 1013.6
20260903174627 78 172 0.0 1.0 0.00 0.00 0.00 69 1013.7
20260903174122 78 216 2.0 2.0 0.00 0.00 0.00 68 1013.8
20260903173617 78 176 0.0 1.0 0.00 0.00 0.00 71 1013.7
20260903173114 78 203 1.0 1.0 0.00 0.00 0.00 70 1013.8
20260903172608 77 176 0.0 0.0 0.00 0.00 0.00 71 1013.7
20260903172103 77 175 0.0 1.0 0.00 0.00 0.00 72 1013.7
20260903171603 77 104 0.0 1.0 0.00 0.00 0.00 70 1013.9
20260903171059 77 191 1.0 1.0 0.00 0.00 0.00 75 1013.7
20260903170557 77 191 1.0 2.0 0.00 0.00 0.00 71 1013.7
20260903170054 76 89 1.0 1.0 0.00 0.00 0.00 77 1013.9
20260903165550 77 194 1.0 2.0 0.00 0.00 0.00 79 1013.8
20260903165046 77 184 1.0 1.0 0.00 0.00 0.00 79 1014.1
20260903164540 76 199 1.0 1.0 0.00 0.00 0.00 75 1013.9
20260903164036 76 170 0.0 0.0 0.00 0.00 0.00 82 1014.1
20260903163531 75 176 1.0 1.0 0.00 0.00 0.00 79 1014.1
20260903163027 75 205 2.0 2.0 0.00 0.00 0.00 79 1014.2
20260903162523 75 179 3.0 3.0 0.00 0.00 0.00 82 1014.4
20260903162019 75 194 1.0 1.0 0.00 0.00 0.00 82 1014.4
20260903161514 74 183 1.0 2.0 0.00 0.00 0.00 85 1014.4
20260903161010 74 166 0.0 0.0 0.00 0.00 0.00 84 1014.7
20260903160509 74 192 1.0 1.0 0.00 0.00 0.00 87 1014.4
20260903160003 74 169 0.0 0.0 0.00 0.00 0.00 87 1014.3
20260903155502 73 163 0.0 0.0 0.00 0.00 0.00 85 1014.5
20260903154958 73 189 1.0 1.0 0.00 0.00 0.00 89 1014.5
20260903154454 73 202 1.0 1.0 0.00 0.00 0.00 89 1014.6
20260903153950 73 179 1.0 1.0 0.00 0.00 0.00 89 1014.4
20260903153445 73 204 1.0 2.0 0.00 0.00 0.00 89 1014.7
20260903152941 73 247 2.0 2.0 0.00 0.00 0.00 92 1014.6
20260903152437 73 154 1.0 1.0 0.00 0.00 0.00 91 1014.4
20260903151933 73 172 0.0 1.0 0.00 0.00 0.00 93 1014.5
20260903151427 72 199 2.0 2.0 0.00 0.00 0.00 93 1014.6
20260903150922 72 177 0.0 1.0 0.00 0.00 0.00 94 1014.5
20260903150416 72 187 1.0 1.0 0.00 0.00 0.00 94 1014.4
20260903145911 71 180 1.0 1.0 0.00 0.00 0.00 95 1014.7
20260903145407 71 221 0.0 1.0 0.00 0.00 0.00 95 1014.8
20260903144906 70 202 1.0 1.0 0.00 0.00 0.00 96 1014.9
20260903144401 70 176 1.0 1.0 0.00 0.00 0.00 96 1014.7
20260903143856 70 179 1.0 1.0 0.00 0.00 0.00 97 1014.7
20260903143353 69 178 0.0 1.0 0.00 0.00 0.00 97 1014.7
20260903142848 69 173 1.0 1.0 0.00 0.00 0.00 97 1014.7
20260903142344 69 170 0.0 1.0 0.00 0.00 0.00 97 1014.5
20260903141840 69 189 1.0 1.0 0.00 0.00 0.00 97 1014.6
20260903141335 69 175 0.0 1.0 0.00 0.00 0.00 97 1014.5
20260903140830 69 181 1.0 1.0 0.00 0.00 0.00 97 1014.5
20260903140325 69 168 0.0 1.0 0.00 0.00 0.00 97 1014.4
20260903135821 69 179 1.0 1.0 0.00 0.00 0.00 97 1014.6
20260903135316 69 212 1.0 1.0 0.00 0.00 0.00 96 1014.5
20260903134815 69 175 0.0 1.0 0.00 0.00 0.00 96 1014.5
20260903134311 69 177 0.0 1.0 0.00 0.00 0.00 96 1014.3
20260903133808 69 181 1.0 1.0 0.00 0.00 0.00 96 1014.3
20260903133305 69 181 1.0 1.0 0.00 0.00 0.00 96 1014.4
20260903132804 69 177 1.0 1.0 0.00 0.00 0.00 96 1014.4
20260903132300 69 183 1.0 1.0 0.00 0.00 0.00 96 1014.5
20260903131755 69 190 1.0 1.0 0.00 0.00 0.00 96 1014.4
20260903131254 69 186 2.0 2.0 0.00 0.00 0.00 95 1014.3
20260903130749 69 178 1.0 2.0 0.00 0.00 0.00 95 1014.3
20260903130244 69 181 1.0 1.0 0.00 0.00 0.00 95 1014.4
20260903125742 69 172 1.0 1.0 0.00 0.00 0.00 95 1014.6
20260903125238 69 170 1.0 1.0 0.00 0.00 0.00 95 1014.4
20260903124737 69 165 0.0 0.0 0.00 0.00 0.00 95 1014.2
20260903124232 69 180 1.0 1.0 0.00 0.00 0.00 95 1014.2
20260903123731 69 183 1.0 1.0 0.00 0.00 0.00 95 1014.6
20260903123230 69 179 0.0 1.0 0.00 0.00 0.00 95 1014.5
20260903122729 69 176 1.0 1.0 0.00 0.00 0.00 95 1014.6
20260903122224 69 180 1.0 1.0 0.00 0.00 0.00 95 1014.4
20260903121722 69 168 0.0 0.0 0.00 0.00 0.00 95 1014.4
20260903121219 69 181 0.0 0.0 0.00 0.00 0.00 95 1014.3
20260903120718 69 172 0.0 0.0 0.00 0.00 0.00 95 1014.2
20260903120212 68 189 0.0 0.0 0.00 0.00 0.00 95 1014.3
20260903115711 68 176 0.0 0.0 0.00 0.00 0.00 95 1013.9
20260903115207 68 185 0.0 0.0 0.00 0.00 0.00 95 1014.2
20260903114701 68 182 0.0 0.0 0.00 0.00 0.00 95 1013.9
20260903114156 68 172 0.0 0.0 0.00 0.00 0.00 95 1014.2
20260903113651 68 170 0.0 0.0 0.00 0.00 0.00 95 1014.1
20260903113148 68 169 0.0 0.0 0.00 0.00 0.00 95 1014.2
20260903112644 68 164 0.0 0.0 0.00 0.00 0.00 95 1013.7
20260903112138 68 168 0.0 0.0 0.00 0.00 0.00 95 1013.8
20260903111637 68 163 0.0 0.0 0.00 0.00 0.00 95 1013.7
20260903111133 68 169 0.0 0.0 0.00 0.00 0.00 95 1013.7
20260903110629 68 163 0.0 0.0 0.00 0.00 0.00 95 1013.6
20260903110125 68 163 0.0 0.0 0.00 0.00 0.00 95 1013.6
20260903105619 68 158 0.0 0.0 0.00 0.00 0.00 95 1013.4
20260903105114 68 174 0.0 0.0 0.00 0.00 0.00 95 1013.4
20260903104613 68 159 0.0 0.0 0.00 0.00 0.00 95 1013.3
20260903104109 68 166 0.0 0.0 0.00 0.00 0.00 96 1013.2
20260903103605 68 176 1.0 1.0 0.00 0.00 0.00 96 1013.6
20260903103101 68 164 0.0 1.0 0.00 0.00 0.00 96 1013.5
20260903102556 68 178 0.0 0.0 0.00 0.00 0.00 96 1013.4
20260903102055 68 172 0.0 0.0 0.00 0.00 0.00 96 1013.3
20260903101549 68 168 1.0 2.0 0.00 0.00 0.00 96 1013.1
20260903101040 68 174 1.0 1.0 0.00 0.00 0.00 96 1013.3
20260903100539 68 166 0.0 1.0 0.00 0.00 0.00 96 1013.6
20260903100038 68 174 0.0 1.0 0.00 0.00 0.00 96 1013.2
20260903095537 68 178 1.0 1.0 0.00 0.00 0.00 95 1013.2
20260903095032 68 171 0.0 1.0 0.00 0.00 0.00 95 1013.2
20260903094532 68 182 1.0 1.0 0.00 0.00 0.00 95 1013.4
20260903094027 68 198 2.0 2.0 0.00 0.00 0.00 96 1013.5
20260903093527 68 181 2.0 2.0 0.00 0.00 0.00 96 1013.3
20260903093023 68 175 0.0 0.0 0.00 0.00 0.00 96 1013.2
20260903092517 67 186 0.0 0.0 0.00 0.00 0.00 96 1013.5
20260903092016 67 169 0.0 0.0 0.00 0.00 0.00 96 1013.5
20260903091515 67 172 0.0 1.0 0.00 0.00 0.00 96 1013.6
20260903091009 67 173 1.0 1.0 0.00 0.00 0.00 96 1013.4
20260903090506 67 167 0.0 1.0 0.00 0.00 0.00 96 1013.3
20260903090004 67 163 0.0 0.0 0.00 0.00 0.00 96 1013.3
20260903085502 68 166 0.0 0.0 0.00 0.00 0.00 96 1013.2
20260903084958 68 170 0.0 0.0 0.00 0.00 0.00 96 1013.3
20260903084456 68 159 0.0 0.0 0.00 0.00 0.00 96 1013.2
20260903083951 68 161 0.0 0.0 0.00 0.00 0.00 96 1013.2
20260903083447 68 168 0.0 0.0 0.00 0.00 0.00 96 1013.3
20260903082946 67 173 0.0 1.0 0.00 0.00 0.00 96 1013.3
20260903082441 67 160 0.0 0.0 0.00 0.00 0.00 96 1013.3
20260903081936 67 173 0.0 0.0 0.00 0.00 0.00 96 1013.4
20260903081432 67 156 0.0 0.0 0.00 0.00 0.00 96 1013.4
20260903080928 67 156 0.0 0.0 0.00 0.00 0.00 96 1013.4
20260903080424 67 181 1.0 2.0 0.00 0.00 0.00 96 1013.5
20260903075919 67 156 0.0 0.0 0.00 0.00 0.00 96 1013.3
20260903075415 67 161 0.0 1.0 0.00 0.00 0.00 96 1013.3
20260903074915 67 187 1.0 1.0 0.00 0.00 0.00 96 1013.3
20260903074409 67 177 1.0 1.0 0.00 0.00 0.00 96 1013.1
20260903073904 67 193 2.0 3.0 0.00 0.00 0.00 96 1013.5
20260903073359 67 170 1.0 1.0 0.00 0.00 0.00 96 1013.6
20260903072855 67 202 3.0 3.0 0.00 0.00 0.00 96 1013.5
20260903072351 67 176 1.0 1.0 0.00 0.00 0.00 96 1013.5
20260903071848 67 193 3.0 3.0 0.00 0.00 0.00 96 1013.5
20260903071343 67 189 1.0 1.0 0.00 0.00 0.00 96 1013.4
20260903070838 67 200 1.0 1.0 0.00 0.00 0.00 96 1013.6
20260903070334 67 186 1.0 2.0 0.00 0.00 0.00 96 1013.6
20260903065828 67 189 1.0 1.0 0.00 0.00 0.00 96 1013.8
20260903065327 67 175 1.0 1.0 0.00 0.00 0.00 96 1013.9
20260903064827 67 199 1.0 2.0 0.00 0.00 0.00 96 1013.7
20260903064323 67 187 1.0 1.0 0.00 0.00 0.00 96 1013.5
20260903063818 67 173 0.0 1.0 0.00 0.00 0.00 96 1013.6
20260903063313 67 173 1.0 1.0 0.00 0.00 0.00 96 1013.3
20260903062809 67 173 1.0 1.0 0.00 0.00 0.00 96 1013.5
20260903062308 67 164 0.0 0.0 0.00 0.00 0.00 96 1013.2
20260903061805 67 179 2.0 3.0 0.00 0.00 0.00 97 1013.3
20260903061303 67 177 0.0 1.0 0.00 0.00 0.00 97 1013.2
20260903060800 67 155 0.0 0.0 0.00 0.00 0.00 97 1013.1
20260903060259 67 214 2.0 2.0 0.00 0.00 0.00 97 1013.4
20260903055757 67 160 0.0 0.0 0.00 0.00 0.00 97 1013.4
20260903055255 67 172 0.0 1.0 0.00 0.00 0.00 98 1013.3
20260903054751 67 156 0.0 0.0 0.00 0.00 0.00 98 1013.2
20260903054246 67 160 0.0 1.0 0.00 0.00 0.00 98 1013.3
20260903053742 67 160 0.0 0.0 0.00 0.00 0.00 98 1013.3
20260903053242 67 176 0.0 1.0 0.00 0.00 0.00 98 1013.4
20260903052738 67 159 0.0 1.0 0.00 0.00 0.00 98 1013.5
20260903052233 67 154 0.0 0.0 0.00 0.00 0.00 98 1013.3
20260903051728 67 165 0.0 0.0 0.00 0.00 0.00 98 1013.1
20260903051224 67 162 0.0 0.0 0.00 0.00 0.00 98 1013.3
20260903050720 67 163 0.0 0.0 0.00 0.00 0.00 98 1013.1
20260903050218 67 166 0.0 0.0 0.00 0.00 0.00 98 1013.2
20260903045713 67 165 0.0 0.0 0.00 0.00 0.00 99 1013.1
20260903045209 67 187 1.0 2.0 0.00 0.00 0.00 99 1013.2
20260903044705 66 173 1.0 1.0 0.00 0.00 0.00 99 1013.0
20260903044201 66 167 0.0 0.0 0.00 0.00 0.00 99 1013.1
20260903043658 66 168 0.0 0.0 0.00 0.00 0.00 99 1012.9
20260903043157 66 162 0.0 1.0 0.00 0.00 0.00 99 1012.7
20260903042656 66 173 1.0 1.0 0.00 0.00 0.00 99 1012.7
20260903042151 66 182 2.0 3.0 0.00 0.00 0.00 99 1012.9
20260903041648 66 177 1.0 1.0 0.00 0.00 0.00 99 1013.2
20260903041143 66 183 1.0 2.0 0.00 0.00 0.00 99 1013.2
20260903040642 66 191 0.0 1.0 0.00 0.00 0.00 99 1013.3
20260903040138 66 199 0.0 2.0 0.00 0.00 0.00 99 1013.3
20260903035634 66 197 1.0 2.0 0.00 1.46 1.46 99 1013.4
20260903035130 66 184 3.0 3.0 0.00 1.46 1.46 99 1013.3
20260903034624 66 177 0.0 1.0 0.00 1.46 1.46 99 1013.3
20260903034119 66 207 2.0 2.0 0.00 1.46 1.46 99 1013.2
20260903033615 66 197 1.0 2.0 0.00 1.46 1.46 99 1013.2
20260903033109 66 186 3.0 3.0 0.00 1.46 1.46 99 1013.4
20260903032604 66 198 2.0 3.0 0.00 1.46 1.46 99 1013.5
20260903032100 67 201 3.0 5.0 0.00 1.46 1.46 99 1013.6
20260903031554 67 187 3.0 3.0 0.00 1.46 1.46 99 1013.5
20260903031049 67 193 1.0 2.0 0.00 1.46 1.46 99 1013.3
20260903030544 67 200 2.0 2.0 0.00 1.46 1.46 99 1013.1
20260903030041 67 171 1.0 1.0 0.07 1.46 1.46 99 1012.7
20260903025536 67 168 0.0 1.0 0.07 1.46 1.46 99 1012.6
20260903025032 67 163 1.0 1.0 0.00 1.45 1.45 99 1012.4
20260903024531 66 194 1.0 2.0 0.00 1.45 1.45 99 1012.7
20260903024025 66 185 3.0 3.0 0.00 1.45 1.45 99 1013.0
20260903023521 66 170 0.0 1.0 0.05 1.45 1.45 99 1012.9
20260903023016 66 154 0.0 0.0 0.05 1.45 1.45 98 1013.1
20260903022515 66 140 0.0 0.0 0.00 1.44 1.44 98 1013.2
20260903022014 66 156 0.0 1.0 0.07 1.44 1.44 98 1013.6
20260903021509 66 157 0.0 0.0 0.07 1.44 1.44 98 1013.7
20260903021004 67 154 0.0 0.0 0.00 1.43 1.43 98 1013.6
20260903020500 67 197 1.0 2.0 0.05 1.43 1.43 98 1013.4
20260903015959 67 137 0.0 0.0 0.12 1.43 1.43 98 1013.3
20260903015455 67 170 0.0 1.0 0.12 1.42 1.42 98 1013.4
20260903014950 67 160 0.0 0.0 0.05 1.41 1.41 98 1013.9
20260903014450 68 170 0.0 1.0 0.07 1.40 1.40 98 1014.6
20260903013945 68 162 0.0 1.0 0.07 1.40 1.40 98 1014.5
20260903013445 68 156 0.0 0.0 0.05 1.39 1.39 98 1014.3
20260903012944 68 157 1.0 2.0 0.05 1.39 1.39 97 1014.4
20260903012443 69 177 1.0 2.0 0.07 1.38 1.38 97 1014.5
20260903011942 70 183 0.0 1.0 0.07 1.38 1.38 97 1014.9
20260903011437 71 178 0.0 1.0 0.12 1.37 1.37 97 1014.6
20260903010932 71 145 0.0 0.0 0.24 1.37 1.37 97 1014.5
20260903010427 71 147 0.0 0.0 0.24 1.35 1.35 97 1014.3
20260903005925 71 145 0.0 0.0 0.12 1.33 1.33 96 1014.7
20260903005421 71 144 0.0 0.0 0.00 1.31 1.31 96 1015.1
20260903004918 71 152 0.0 0.0 0.00 1.31 1.31 96 1015.0
20260903004412 71 148 0.0 0.0 0.00 1.31 1.31 96 1014.8
20260903003907 71 115 0.0 1.0 0.00 1.31 1.31 96 1014.8
20260903003402 71 140 0.0 1.0 0.00 1.31 1.31 96 1014.2
20260903002902 71 149 0.0 0.0 0.00 1.31 1.31 96 1013.9
20260903002356 71 147 0.0 0.0 0.00 1.31 1.31 96 1013.4
20260903001851 71 146 0.0 0.0 0.00 1.31 1.31 96 1013.7
20260903001346 71 145 0.0 0.0 0.00 1.31 1.31 96 1013.6
20260903000846 71 140 0.0 1.0 0.00 1.31 1.31 96 1013.3
20260903000341 72 150 0.0 0.0 0.00 1.31 1.31 96 1013.7
20260902235839 72 153 0.0 1.0 0.00 1.31 1.31 96 1013.7
20260902235334 72 152 0.0 1.0 0.00 1.31 1.31 96 1013.9
20260902234834 72 154 0.0 0.0 0.00 1.31 1.31 96 1013.9
20260902234329 72 152 0.0 0.0 0.00 1.31 1.31 95 1013.4
20260902233828 72 140 0.0 0.0 0.00 1.31 1.31 95 1013.4
20260902233327 72 137 0.0 0.0 0.00 1.31 1.31 95 1013.2
20260902232826 72 148 0.0 1.0 0.00 1.31 1.31 95 1013.3
20260902232321 72 177 0.0 0.0 0.00 1.31 1.31 95 1013.5
20260902231815 72 158 0.0 0.0 0.00 1.31 1.31 95 1013.8
20260902231310 73 144 0.0 0.0 0.00 1.31 1.31 95 1013.5
20260902230805 73 176 1.0 1.0 0.00 1.31 1.31 94 1013.9
20260902230304 73 155 0.0 1.0 0.00 1.31 1.31 95 1013.7
20260902225759 73 163 1.0 1.0 0.00 1.31 1.31 95 1013.5
20260902225254 73 156 0.0 0.0 0.00 1.31 1.31 94 1013.6
20260902224752 73 154 1.0 1.0 0.00 1.31 1.31 94 1013.2
20260902224248 73 148 0.0 1.0 0.00 1.31 1.31 94 1013.2
20260902223744 74 151 1.0 1.0 0.00 1.31 1.31 94 1012.9
20260902223243 74 161 0.0 0.0 0.00 1.31 1.31 93 1013.1
20260902222742 74 137 0.0 0.0 0.00 1.31 1.31 93 1013.0
20260902222236 74 147 0.0 0.0 0.00 1.31 1.31 93 1013.2
20260902221731 75 153 0.0 0.0 0.00 1.31 1.31 93 1013.2
20260902221230 75 144 0.0 1.0 0.00 1.31 1.31 93 1013.1
20260902220726 75 144 0.0 0.0 0.00 1.31 1.31 93 1013.2
20260902220225 75 138 0.0 0.0 0.00 1.31 1.31 93 1013.2
20260902215721 75 147 0.0 1.0 0.00 1.31 1.31 93 1013.5
20260902215217 76 165 1.0 1.0 0.00 1.31 1.31 92 1013.7
20260902214712 76 145 0.0 0.0 0.00 1.31 1.31 92 1014.2
20260902214211 76 146 0.0 0.0 0.00 1.31 1.31 91 1014.5
20260902213706 77 146 0.0 0.0 0.00 1.31 1.31 91 1014.7
20260902213201 77 147 0.0 0.0 0.00 1.31 1.31 91 1014.9
20260902212656 77 152 0.0 0.0 0.00 1.31 1.31 91 1014.9
20260902212153 77 146 0.0 0.0 0.00 1.31 1.31 91 1014.8
20260902211648 77 144 0.0 0.0 0.00 1.31 1.31 90 1015.1
20260902211148 77 149 0.0 0.0 0.00 1.31 1.31 90 1015.5
20260902210648 77 153 0.0 0.0 0.00 1.31 1.31 90 1015.3
20260902210143 77 153 0.0 0.0 0.00 1.31 1.31 90 1015.4
20260902205642 77 148 0.0 0.0 0.00 1.31 1.31 90 1015.1
20260902205137 78 146 0.0 0.0 0.00 1.31 1.31 89 1015.2
20260902204632 78 150 0.0 0.0 0.00 1.31 1.31 88 1015.2
20260902204127 78 153 0.0 0.0 0.00 1.31 1.31 88 1015.2
20260902203622 78 151 0.0 0.0 0.00 1.31 1.31 88 1015.3
20260902203122 78 146 0.0 0.0 0.00 1.31 1.31 88 1015.1
20260902202617 78 150 0.0 1.0 0.00 1.31 1.31 88 1015.2
20260902202114 78 151 0.0 0.0 0.00 1.31 1.31 88 1015.4
20260902201610 78 143 0.0 0.0 0.00 1.31 1.31 88 1015.0
20260902201109 78 147 0.0 0.0 0.00 1.31 1.31 87 1014.8
20260902200604 78 143 0.0 0.0 0.00 1.31 1.31 88 1015.1
20260902200100 78 154 0.0 0.0 0.00 1.31 1.31 88 1014.8
20260902195555 78 147 0.0 0.0 0.00 1.31 1.31 87 1014.8
20260902195054 78 137 0.0 0.0 0.00 1.31 1.31 87 1014.5
20260902194548 77 161 0.0 1.0 0.00 1.31 1.31 87 1014.7
20260902194044 77 154 0.0 0.0 0.00 1.31 1.31 88 1015.0
20260902193540 78 160 0.0 0.0 0.00 1.31 1.31 88 1014.8
20260902193039 78 153 0.0 0.0 0.00 1.31 1.31 87 1015.0
20260902192537 78 151 0.0 0.0 0.00 1.31 1.31 87 1015.0
20260902192036 78 152 0.0 0.0 0.00 1.31 1.31 86 1015.1
20260902191532 79 150 0.0 1.0 0.00 1.31 1.31 85 1015.0
20260902191026 79 155 0.0 0.0 0.00 1.31 1.31 85 1014.9
20260902190522 79 161 0.0 1.0 0.00 1.31 1.31 82 1014.9
20260902190018 79 167 0.0 0.0 0.00 1.31 1.31 83 1015.2
20260902185513 79 175 1.0 2.0 0.00 1.31 1.31 85 1015.1
20260902185009 79 163 0.0 0.0 0.00 1.31 1.31 84 1015.5
20260902184504 78 168 1.0 1.0 0.00 1.31 1.31 86 1015.4
20260902183959 78 155 0.0 0.0 0.00 1.31 1.31 87 1015.7
20260902183455 77 142 0.0 1.0 0.00 1.31 1.31 86 1015.5
20260902182951 78 170 0.0 1.0 0.00 1.31 1.31 86 1015.6
20260902182447 78 154 0.0 0.0 0.00 1.31 1.31 83 1015.7
20260902181943 77 107 0.0 1.0 0.00 1.31 1.31 84 1015.9
20260902181438 77 141 3.0 3.0 0.00 1.31 1.31 85 1015.8
20260902180933 77 153 0.0 0.0 0.00 1.31 1.31 86 1015.7